User: anonymous   Login
Location: White Ridge parking lot
(35.4984°N, 106.8413°W)
Time: 09:06:46
(UTC-06:00)
Language:

XW-2C - Orbit

View from above orbital plane
View from above orbital plane
View from above satellite
View from above satellite

Ground track
Ground track

The orbit data is extracted from the following two-line orbital elements,

1 40906U 15049H   19262.35988988  .00000256  00000-0  16901-4 0  9990
2 40906  97.4702 262.9184 0013239 236.3234 230.7816 15.15749326221031
Epoch (UTC): 19 September 2019 08:38:14
Eccentricity: 0.0013239
inclination: 97.4702°
perigee height: 509 km
apogee height: 528 km
right ascension of ascending node: 262.9184°
argument of perigee: 236.3234°
revolutions per day: 15.15749326
mean anomaly at epoch: 230.7816°
orbit number at epoch: 22103

The dashed part of the orbit path shows where the satellite is in the earth's shadow,  

DLR